Weather History for Burlington, WA

Change the Weather History Date:

Tuesday, August 13, 2013

  Actual Average Record
Temperature  
Mean Temperature 63 °F -  
Max Temperature 75 °F 74 °F 89 °F (1977)
Min Temperature 51 °F 52 °F 44 °F (1957)
Degree Days  
Heating Degree Days 2    
Growing Degree Days 13 (Base 50)    
Moisture  
Dew Point 57 °F    
Average Humidity 82    
Maximum Humidity 100    
Minimum Humidity 53    
Precipitation  
Precipitation 0.00 in - - ()
Sea Level Pressure  
Sea Level Pressure 30.06 in    
Wind  
Wind Speed 3 mph (West)    
Max Wind Speed 9 mph    
Max Gust Speed -    
Visibility 10 miles    
Events      
Averages and records for this station are not official NWS values.
T = Trace of Precipitation, MM = Missing Value Source: NWS Daily Summary

Daily Weather History Graph

Daily Weather History Graph

Search for Another Location

Airport:

Trip Planner

Search our weather history database for the weather conditions in past years. The results will help you decide how hot, cold, wet, or windy it might be!

Date:

Astronomy

Aug. 13, 2013 Rise Set
Actual Time 6:01 AM PDT 8:26 PM PDT
Civil Twilight 5:26 AM PDT 9:01 PM PDT
Nautical Twilight 4:42 AM PDT 9:45 PM PDT
Astronomical Twilight 3:51 AM PDT 10:35 PM PDT
Moon 1:40 PM PDT (8/13) 11:26 PM PDT (8/13)
Length of Visible Light 15h 35m
Length of Day
14h 25m
Waxing Crescent, 43% of the Moon is Illuminated
Aug 13
Waxing Crescent
Aug 14
First Quarter
Aug 20
Full
Aug 28
Last Quarter
Sep 5
New

Hourly Weather History & Observations

Time (PDT) Temp. Dew Point Humidity Pressure Visibility Wind Dir Wind Speed Gust Speed Precip Events Conditions
12:15 AM 55.4 °F 55.4 °F 100% 30.09 in 10.0 mi Calm Calm - 0.00 in   Clear
12:35 AM 55.4 °F 55.4 °F 100% 30.09 in 10.0 mi Calm Calm - 0.00 in   Clear
12:55 AM 55.4 °F 55.4 °F 100% 30.09 in 10.0 mi SSW 4.6 mph - 0.00 in   Scattered Clouds
1:15 AM 55.4 °F 55.4 °F 100% 30.09 in 10.0 mi South 4.6 mph - 0.00 in   Scattered Clouds
1:35 AM 55.4 °F 55.4 °F 100% 30.09 in 10.0 mi SSE 3.5 mph - 0.00 in   Clear
1:55 AM 53.6 °F 53.6 °F 100% 30.09 in 10.0 mi SE 4.6 mph - 0.00 in   Clear
2:15 AM 55.4 °F 55.4 °F 100% 30.09 in 10.0 mi South 4.6 mph - 0.00 in   Clear
2:35 AM 55.4 °F 55.4 °F 100% 30.10 in 10.0 mi SSE 6.9 mph - 0.00 in   Clear
2:55 AM 55.4 °F 55.4 °F 100% 30.10 in 10.0 mi South 5.8 mph - 0.00 in   Clear
3:15 AM 55.4 °F 55.4 °F 100% 30.10 in 10.0 mi South 6.9 mph - 0.00 in   Mostly Cloudy
3:35 AM 55.4 °F 55.4 °F 100% 30.11 in 10.0 mi South 4.6 mph - 0.00 in   Overcast
3:55 AM 55.4 °F 55.4 °F 100% 30.11 in 10.0 mi SSE 3.5 mph - 0.00 in   Overcast
4:15 AM 55.4 °F 55.4 °F 100% 30.11 in 10.0 mi South 4.6 mph - 0.00 in   Mostly Cloudy
4:35 AM 53.6 °F 53.6 °F 100% 30.11 in 10.0 mi Calm Calm - 0.00 in   Scattered Clouds
4:55 AM 53.6 °F 53.6 °F 100% 30.11 in 10.0 mi Calm Calm - 0.00 in   Partly Cloudy
5:15 AM 53.6 °F 53.6 °F 100% 30.11 in 9.0 mi Calm Calm - 0.00 in   Clear
5:35 AM 53.6 °F 53.6 °F 100% 30.12 in 9.0 mi Calm Calm - 0.00 in   Clear
5:55 AM 51.8 °F 51.8 °F 100% 30.12 in 10.0 mi Calm Calm - 0.00 in   Partly Cloudy
6:15 AM 53.6 °F 53.6 °F 100% 30.12 in 6.0 mi Calm Calm - 0.00 in   Scattered Clouds
6:35 AM 53.6 °F 53.6 °F 100% 30.12 in 8.0 mi Calm Calm - 0.00 in   Partly Cloudy
6:55 AM 53.6 °F 53.6 °F 100% 30.12 in 8.0 mi Calm Calm - 0.00 in   Clear
7:15 AM 55.4 °F 55.4 °F 100% 30.12 in 10.0 mi Calm Calm - 0.00 in   Clear
7:35 AM 57.2 °F 57.2 °F 100% 30.12 in 9.0 mi Calm Calm - 0.00 in   Mostly Cloudy
7:55 AM 59.0 °F 57.2 °F 94% 30.12 in 10.0 mi Calm Calm - 0.00 in   Scattered Clouds
8:15 AM 60.8 °F 57.2 °F 88% 30.12 in 10.0 mi Calm Calm - 0.00 in   Scattered Clouds
8:35 AM 62.6 °F 57.2 °F 82% 30.13 in 9.0 mi West 4.6 mph - 0.00 in   Mostly Cloudy
8:55 AM 62.6 °F 57.2 °F 82% 30.12 in 10.0 mi SW 4.6 mph - 0.00 in   Mostly Cloudy
9:15 AM 64.4 °F 57.2 °F 77% 30.12 in 10.0 mi SSW 6.9 mph - 0.00 in   Partly Cloudy
9:35 AM 64.4 °F 57.2 °F 77% 30.12 in 5.0 mi WSW 5.8 mph - 0.00 in   Clear
9:55 AM 64.4 °F 57.2 °F 77% 30.12 in 8.0 mi SW 6.9 mph - 0.00 in   Mostly Cloudy
10:15 AM 64.4 °F 57.2 °F 77% 30.12 in 10.0 mi West 4.6 mph - 0.00 in   Partly Cloudy
10:35 AM 66.2 °F 57.2 °F 73% 30.12 in 10.0 mi WNW 3.5 mph - 0.00 in   Clear
10:55 AM 68.0 °F 59.0 °F 73% 30.12 in 10.0 mi West 3.5 mph - 0.00 in   Clear
11:15 AM 69.8 °F 59.0 °F 68% 30.12 in 10.0 mi West 5.8 mph - 0.00 in   Clear
11:35 AM 69.8 °F 59.0 °F 68% 30.11 in 10.0 mi South 3.5 mph - 0.00 in   Clear
11:55 AM 69.8 °F 59.0 °F 68% 30.10 in 10.0 mi NW 4.6 mph - 0.00 in   Clear
12:15 PM 71.6 °F 59.0 °F 64% 30.10 in 10.0 mi SW 5.8 mph - 0.00 in   Clear
12:35 PM 71.6 °F 59.0 °F 64% 30.09 in 10.0 mi West 6.9 mph - 0.00 in   Clear
12:55 PM 73.4 °F 59.0 °F 61% 30.09 in 10.0 mi West 6.9 mph - 0.00 in   Clear
1:15 PM 71.6 °F 59.0 °F 64% 30.09 in 10.0 mi West 6.9 mph - 0.00 in   Clear
1:35 PM 73.4 °F 59.0 °F 61% 30.08 in 9.0 mi NNW 8.1 mph - 0.00 in   Clear
1:55 PM 73.4 °F 59.0 °F 61% 30.08 in 10.0 mi WSW 6.9 mph - 0.00 in   Clear
2:15 PM 73.4 °F 57.2 °F 57% 30.08 in 10.0 mi NW 5.8 mph - 0.00 in   Clear
2:35 PM 73.4 °F 57.2 °F 57% 30.07 in 10.0 mi West 4.6 mph - 0.00 in   Clear
2:55 PM 75.2 °F 57.2 °F 53% 30.06 in 10.0 mi NW 8.1 mph - 0.00 in   Clear
3:15 PM 75.2 °F 57.2 °F 53% 30.05 in 9.0 mi NNW 6.9 mph - 0.00 in   Clear
3:35 PM 75.2 °F 57.2 °F 53% 30.05 in 10.0 mi West 8.1 mph - 0.00 in   Clear
3:55 PM 75.2 °F 57.2 °F 53% 30.04 in 7.0 mi WNW 6.9 mph - 0.00 in   Clear
5:15 PM 75.2 °F 59.0 °F 57% 30.02 in 10.0 mi NNW 8.1 mph - 0.00 in   Clear
5:35 PM 75.2 °F 57.2 °F 53% 30.01 in 10.0 mi NW 4.6 mph - 0.00 in   Clear
5:55 PM 75.2 °F 59.0 °F 57% 30.01 in 10.0 mi NW 6.9 mph - 0.00 in   Clear
6:15 PM 75.2 °F 59.0 °F 57% 30.01 in 10.0 mi West 6.9 mph - 0.00 in   Clear
6:35 PM 73.4 °F 57.2 °F 57% 30.01 in 9.0 mi NW 8.1 mph - 0.00 in   Clear
6:55 PM 73.4 °F 57.2 °F 57% 30.00 in 10.0 mi NW 9.2 mph - 0.00 in   Clear
7:15 PM 71.6 °F 57.2 °F 60% 29.99 in 10.0 mi WNW 6.9 mph - 0.00 in   Clear
7:35 PM 68.0 °F 57.2 °F 68% 29.99 in 10.0 mi WNW 4.6 mph - 0.00 in   Clear
7:55 PM 66.2 °F 59.0 °F 78% 29.98 in 10.0 mi Calm Calm - 0.00 in   Clear
8:15 PM 64.4 °F 57.2 °F 77% 29.98 in 10.0 mi WNW 3.5 mph - 0.00 in   Clear
8:35 PM 62.6 °F 59.0 °F 88% 29.97 in 10.0 mi Calm Calm - 0.00 in   Clear
8:55 PM 62.6 °F 57.2 °F 82% 29.97 in 10.0 mi Calm Calm - 0.00 in   Clear
9:15 PM 59.0 °F 57.2 °F 94% 29.97 in 10.0 mi Calm Calm - 0.00 in   Clear
9:35 PM 59.0 °F 57.2 °F 94% 29.97 in 10.0 mi Calm Calm - 0.00 in   Clear
9:55 PM 57.2 °F 57.2 °F 100% 29.97 in 10.0 mi Calm Calm - 0.00 in   Clear
10:15 PM 57.2 °F 57.2 °F 100% 29.96 in 10.0 mi Calm Calm - 0.00 in   Clear
10:35 PM 57.2 °F 57.2 °F 100% 29.96 in 10.0 mi NW 3.5 mph - 0.00 in   Clear
10:55 PM 57.2 °F 57.2 °F 100% 29.96 in 10.0 mi Calm Calm - 0.00 in   Clear
11:15 PM 55.4 °F 55.4 °F 100% 29.96 in 10.0 mi WNW 3.5 mph - 0.00 in   Clear
11:35 PM 55.4 °F 55.4 °F 100% 29.96 in 10.0 mi Calm Calm - 0.00 in   Clear
11:55 PM 57.2 °F 57.2 °F 100% 29.96 in 10.0 mi Calm Calm - 0.00 in   Clear